Howell, MI

11:17 AM EDT on July 26, 2017 (GMT -0400)
Livingston County

Weather History for KOZW - November, 2012

Change the Weather History Date:

Sunday, November 4, 2012

  Actual Average Record
Temperature  
Mean Temperature 33 °F -  
Max Temperature 39 °F 51 °F 76 °F (2015)
Min Temperature 27 °F 34 °F 21 °F (2006)
Degree Days  
Heating Degree Days 32    
Moisture  
Dew Point 24 °F    
Average Humidity 68    
Maximum Humidity 82    
Minimum Humidity 53    
Precipitation  
Precipitation 0.00 in - - ()
Sea Level Pressure  
Sea Level Pressure 30.17 in    
Wind  
Wind Speed 2 mph (NNW)    
Max Wind Speed 8 mph    
Max Gust Speed -    
Visibility 10 miles    
Events      
Averages and records for this station are not official NWS values.
T = Trace of Precipitation, MM = Missing Value Source: NWS Daily Summary

Daily Weather History Graph

Daily Weather History Graph

Search for Another Location

Airport or City:

Trip Planner

Search our weather history database for the weather conditions in past years. The results will help you decide how hot, cold, wet, or windy it might be!

Date:

Astronomy

Nov. 04, 2012 Rise Set
Actual Time 7:14 AM EST 5:24 PM EST
Civil Twilight 6:44 AM EST 5:53 PM EST
Nautical Twilight 6:11 AM EST 6:27 PM EST
Astronomical Twilight 5:38 AM EST 7:00 PM EST
Moon 10:00 PM EST (11/4) 11:58 AM EST (11/4)
Length of Visible Light 11h 09m
Length of Day
10h 10m
Waning Gibbous, 72% of the Moon is Illuminated
Nov 4
Waning Gibbous
Nov 6
Last Quarter
Nov 13
New
Nov 20
First Quarter
Nov 28
Full

Hourly Weather History & Observations

Time (EST) Temp. Windchill Dew Point Humidity Pressure Visibility Wind Dir Wind Speed Gust Speed Precip Events Conditions
12:14 AM 32.5 °F - 27.7 °F 82% 30.17 in 10.0 mi Calm Calm - N/A   Overcast
12:35 AM 32.9 °F - 27.3 °F 80% 30.17 in 10.0 mi Calm Calm - N/A   Overcast
12:54 AM 32.9 °F - 27.3 °F 80% 30.18 in 10.0 mi Calm Calm - N/A   Overcast
1:15 AM 33.1 °F - 27.3 °F 79% 30.18 in 10.0 mi Calm Calm - N/A   Overcast
1:35 AM 33.1 °F - 27.3 °F 79% 30.18 in 10.0 mi Calm Calm - N/A   Overcast
1:54 AM 33.1 °F - 27.5 °F 80% 30.18 in 10.0 mi Calm Calm - N/A   Overcast
1:15 AM 33.1 °F - 27.5 °F 80% 30.18 in 10.0 mi Calm Calm - N/A   Overcast
1:35 AM 32.9 °F - 27.1 °F 79% 30.17 in 10.0 mi Calm Calm - N/A   Overcast
1:54 AM 32.9 °F - 26.6 °F 78% 30.17 in 10.0 mi Calm Calm - N/A   Overcast
2:15 AM 32.5 °F - 25.9 °F 76% 30.17 in 10.0 mi Calm Calm - N/A   Overcast
2:34 AM 32.0 °F - 24.8 °F 75% 30.16 in 10.0 mi Calm Calm - N/A   Scattered Clouds
2:54 AM 32.0 °F - 24.6 °F 74% 30.16 in 10.0 mi Calm Calm - N/A   Mostly Cloudy
3:15 AM 31.8 °F - 24.1 °F 73% 30.16 in 10.0 mi Calm Calm - N/A   Overcast
3:34 AM 31.3 °F - 23.9 °F 74% 30.16 in 10.0 mi Calm Calm - N/A   Mostly Cloudy
3:55 AM 30.0 °F - 23.9 °F 78% 30.17 in 10.0 mi Calm Calm - N/A   Scattered Clouds
4:14 AM 31.1 °F - 24.1 °F 75% 30.17 in 10.0 mi Calm Calm - N/A   Mostly Cloudy
4:35 AM 31.8 °F 28.5 °F 24.6 °F 75% 30.18 in 10.0 mi NNW 3.5 mph - N/A   Overcast
4:55 AM 32.4 °F - 24.3 °F 72% 30.18 in 10.0 mi Calm Calm - N/A   Overcast
5:14 AM 32.4 °F 29.1 °F 24.4 °F 73% 30.18 in 10.0 mi North 3.5 mph - N/A   Overcast
5:35 AM 32.4 °F - 24.8 °F 74% 30.18 in 10.0 mi Calm Calm - N/A   Overcast
5:54 AM 32.7 °F 28.3 °F 23.9 °F 70% 30.18 in 10.0 mi North 4.6 mph - N/A   Overcast
6:14 AM 32.5 °F 26.2 °F 23.2 °F 68% 30.18 in 10.0 mi North 6.9 mph - N/A   Overcast
6:35 AM 32.5 °F 28.1 °F 24.1 °F 71% 30.18 in 10.0 mi North 4.6 mph - N/A   Overcast
6:54 AM 32.4 °F 27.9 °F 24.4 °F 73% 30.18 in 10.0 mi NNW 4.6 mph - N/A   Overcast
7:15 AM 32.2 °F 27.7 °F 24.4 °F 73% 30.19 in 10.0 mi NNW 4.6 mph - N/A   Overcast
7:35 AM 32.2 °F 26.7 °F 24.8 °F 74% 30.20 in 10.0 mi NNW 5.8 mph - N/A   Overcast
7:54 AM 32.4 °F 26.9 °F 24.4 °F 73% 30.20 in 10.0 mi NW 5.8 mph - N/A   Overcast
8:15 AM 32.5 °F 26.2 °F 24.3 °F 72% 30.20 in 10.0 mi NNW 6.9 mph - N/A   Overcast
8:34 AM 32.5 °F 27.1 °F 24.3 °F 72% 30.20 in 10.0 mi NNW 5.8 mph - N/A   Overcast
8:55 AM 32.9 °F 25.9 °F 24.6 °F 72% 30.20 in 10.0 mi NNW 8.1 mph - N/A   Overcast
9:15 AM 32.9 °F 25.9 °F 23.5 °F 68% 30.20 in 10.0 mi NNW 8.1 mph - N/A   Overcast
9:34 AM 33.6 °F 27.5 °F 23.5 °F 67% 30.20 in 10.0 mi NNW 6.9 mph - N/A   Overcast
9:55 AM 34.0 °F 28.8 °F 23.0 °F 64% 30.20 in 10.0 mi NW 5.8 mph - N/A   Overcast
10:15 AM 34.7 °F 28.1 °F 23.0 °F 62% 30.19 in 10.0 mi NNW 8.1 mph - N/A   Overcast
10:34 AM 34.3 °F 29.2 °F 22.6 °F 62% 30.19 in 10.0 mi North 5.8 mph - N/A   Overcast
10:55 AM 35.4 °F 30.5 °F 23.0 °F 61% 30.19 in 10.0 mi North 5.8 mph - N/A   Overcast
11:15 AM 35.6 °F 30.7 °F 22.8 °F 60% 30.19 in 10.0 mi NW 5.8 mph - N/A   Overcast
11:34 AM 36.7 °F 32.9 °F 23.2 °F 58% 30.18 in 10.0 mi NNW 4.6 mph - N/A   Overcast
11:55 AM 37.6 °F 33.1 °F 23.2 °F 56% 30.17 in 10.0 mi North 5.8 mph - N/A   Overcast
12:14 PM 37.4 °F 34.9 °F 23.2 °F 57% 30.17 in 10.0 mi NNW 3.5 mph - N/A   Overcast
12:34 PM 38.1 °F - 23.4 °F 55% 30.17 in 10.0 mi Calm Calm - N/A   Overcast
12:54 PM 37.4 °F 34.9 °F 22.6 °F 55% 30.17 in 10.0 mi ESE 3.5 mph - N/A   Overcast
1:14 PM 38.3 °F 35.9 °F 22.6 °F 53% 30.17 in 10.0 mi WNW 3.5 mph - N/A   Overcast
1:35 PM 38.3 °F - 22.5 °F 53% 30.16 in 10.0 mi Calm Calm - N/A   Overcast
1:54 PM 38.3 °F - 23.2 °F 55% 30.16 in 10.0 mi Calm Calm - N/A   Overcast
2:15 PM 38.3 °F - 22.6 °F 53% 30.16 in 10.0 mi Calm Calm - N/A   Overcast
2:34 PM 38.3 °F - 22.5 °F 53% 30.15 in 10.0 mi Calm Calm - N/A   Mostly Cloudy
2:55 PM 38.3 °F - 22.6 °F 53% 30.15 in 10.0 mi Calm Calm - N/A   Scattered Clouds
3:14 PM 38.5 °F - 22.6 °F 53% 30.15 in 10.0 mi Calm Calm - N/A   Clear
3:35 PM 39.0 °F 36.8 °F 23.2 °F 53% 30.15 in 10.0 mi WNW 3.5 mph - N/A   Scattered Clouds
3:55 PM 38.7 °F 34.3 °F 23.9 °F 55% 30.15 in 10.0 mi WNW 5.8 mph - N/A   Mostly Cloudy
4:14 PM 37.6 °F 34.0 °F 23.9 °F 58% 30.15 in 10.0 mi WNW 4.6 mph - N/A   Scattered Clouds
4:35 PM 38.7 °F 36.3 °F 23.4 °F 54% 30.16 in 10.0 mi West 3.5 mph - N/A   Scattered Clouds
4:54 PM 37.8 °F 35.3 °F 23.9 °F 57% 30.16 in 10.0 mi WNW 3.5 mph - N/A   Mostly Cloudy
5:14 PM 36.9 °F 34.3 °F 23.4 °F 58% 30.15 in 10.0 mi NW 3.5 mph - N/A   Mostly Cloudy
5:35 PM 35.8 °F - 23.2 °F 60% 30.16 in 10.0 mi Calm Calm - N/A   Mostly Cloudy
5:54 PM 35.1 °F - 23.7 °F 63% 30.15 in 10.0 mi Calm Calm - N/A   Overcast
6:15 PM 35.1 °F 32.2 °F 24.6 °F 66% 30.16 in 10.0 mi NW 3.5 mph - N/A   Overcast
6:35 PM 34.7 °F - 24.1 °F 65% 30.16 in 10.0 mi Calm Calm - N/A   Overcast
6:54 PM 34.3 °F - 23.9 °F 66% 30.16 in 10.0 mi Calm Calm - N/A   Mostly Cloudy
7:15 PM 33.8 °F - 23.5 °F 66% 30.17 in 10.0 mi Calm Calm - N/A   Scattered Clouds
7:34 PM 32.9 °F 28.5 °F 23.4 °F 68% 30.17 in 10.0 mi NW 4.6 mph - N/A   Scattered Clouds
7:55 PM 32.0 °F - 23.2 °F 70% 30.17 in 10.0 mi Calm Calm - N/A   Clear
8:15 PM 31.3 °F - 23.0 °F 71% 30.16 in 10.0 mi Calm Calm - N/A   Clear
8:34 PM 30.6 °F - 23.4 °F 75% 30.17 in 10.0 mi Calm Calm - N/A   Clear
8:55 PM 30.2 °F - 23.5 °F 76% 30.17 in 10.0 mi Calm Calm - N/A   Clear
9:14 PM 30.2 °F - 23.5 °F 76% 30.17 in 10.0 mi Calm Calm - N/A   Clear
9:34 PM 28.9 °F - 22.5 °F 77% 30.17 in 10.0 mi Calm Calm - N/A   Clear
9:55 PM 27.9 °F - 22.5 °F 80% 30.17 in 10.0 mi Calm Calm - N/A   Clear
10:14 PM 28.9 °F - 23.2 °F 79% 30.17 in 10.0 mi Calm Calm - N/A   Clear
10:35 PM 27.9 °F - 23.0 °F 82% 30.17 in 10.0 mi Calm Calm - N/A   Clear
10:55 PM 28.9 °F - 23.7 °F 81% 30.17 in 10.0 mi Calm Calm - N/A   Clear